FW7027 Weather Reports


Display with metric or nautical units.
time (UTC)temp
F
wind
direction
speed
MPH
gust
MPH
rain 1hr
in
rain 24hr
in
rain mn
in
humidity
%
barometer
mb
20260510153225 75 334 1.0 6.0 0.00 0.00 0.00 55
20260510152722 74 351 3.0 6.0 0.00 0.00 0.00 59
20260510152218 74 357 2.0 2.0 0.00 0.00 0.00 62
20260510151715 73 14 1.0 3.0 0.00 0.00 0.00 57
20260510151214 73 38 1.0 3.0 0.00 0.00 0.00 59
20260510150709 74 14 1.0 1.0 0.00 0.00 0.00 63
20260510150204 73 58 1.0 2.0 0.00 0.00 0.00 58
20260510145701 73 24 1.0 2.0 0.00 0.00 0.00 60
20260510145157 73 58 1.0 3.0 0.00 0.00 0.00 58
20260510144653 73 5 1.0 7.0 0.00 0.00 0.00 62
20260510144150 72 60 2.0 3.0 0.00 0.00 0.00 62
20260510143645 72 14 0.0 2.0 0.00 0.00 0.00 63
20260510143142 71 273 2.0 5.0 0.00 0.00 0.00 67
20260510142638 69 3 2.0 2.0 0.00 0.00 0.00 76
20260510142135 69 0 0.0 1.0 0.00 0.00 0.00 72
20260510141632 73 157 3.0 5.0 0.00 0.00 0.00 66
20260510141131 73 22 1.0 1.0 0.00 0.00 0.00 66
20260510140626 72 15 1.0 2.0 0.00 0.00 0.00 70
20260510140126 69 19 0.0 1.0 0.00 0.00 0.00 75
20260510135621 69 3 1.0 1.0 0.00 0.00 0.00 77
20260510135118 68 338 0.0 2.0 0.00 0.00 0.00 76
20260510134615 68 15 1.0 2.0 0.00 0.00 0.00 85
20260510134112 67 21 0.0 1.0 0.00 0.00 0.00 83
20260510133608 68 23 0.0 0.0 0.00 0.00 0.00 84
20260510133103 67 27 0.0 1.0 0.00 0.00 0.00 84
20260510132601 66 21 0.0 1.0 0.00 0.00 0.00 86
20260510132057 65 37 0.0 1.0 0.00 0.00 0.00 85
20260510131555 64 23 0.0 1.0 0.00 0.00 0.00 87
20260510131052 64 52 0.0 1.0 0.00 0.00 0.00 86
20260510130548 64 51 0.0 0.0 0.00 0.00 0.00 84
20260510130046 63 51 0.0 1.0 0.00 0.00 0.00 87
20260510125542 61 51 0.0 0.0 0.00 0.00 0.00 85
20260510125038 61 50 0.0 1.0 0.00 0.00 0.00 88
20260510124536 59 39 0.0 0.0 0.00 0.00 0.00 89
20260510124032 59 61 0.0 0.0 0.00 0.00 0.00 90
20260510123527 57 33 0.0 0.0 0.00 0.00 0.00 92
20260510123024 56 30 0.0 0.0 0.00 0.00 0.00 92
20260510122519 55 29 0.0 0.0 0.00 0.00 0.00 96
20260510122016 53 27 0.0 0.0 0.00 0.00 0.00 99
20260510121513 52 27 0.0 0.0 0.00 0.00 0.00 99
20260510121010 51 28 0.0 0.0 0.00 0.00 0.00 99
20260510120508 49 27 0.0 0.0 0.00 0.00 0.00 99
20260510120004 48 27 0.0 0.0 0.00 0.00 0.00 99
20260510115501 48 27 0.0 0.0 0.00 0.00 0.00 99
20260510114956 48 27 0.0 0.0 0.00 0.00 0.00 99
20260510114453 48 27 0.0 0.0 0.00 0.00 0.00 99
20260510113949 48 27 0.0 0.0 0.00 0.00 0.00 99
20260510113444 47 27 0.0 0.0 0.00 0.00 0.00 99
20260510112942 47 27 0.0 0.0 0.00 0.00 0.00 99
20260510112439 47 27 0.0 0.0 0.00 0.00 0.00 99
20260510111935 46 27 0.0 0.0 0.00 0.00 0.00 99
20260510111431 46 27 0.0 0.0 0.00 0.00 0.00 99
20260510110927 46 27 0.0 0.0 0.00 0.00 0.00 99
20260510110424 46 27 0.0 0.0 0.00 0.00 0.00 99
20260510105920 46 27 0.0 0.0 0.00 0.00 0.00 99
20260510105415 46 28 0.0 0.0 0.00 0.00 0.00 99
20260510104911 46 28 0.0 0.0 0.00 0.00 0.00 99
20260510104408 45 28 0.0 0.0 0.00 0.00 0.00 99
20260510103904 45 28 0.0 0.0 0.00 0.00 0.00 99
20260510103401 45 28 0.0 0.0 0.00 0.00 0.00 99
20260510102856 45 28 0.0 0.0 0.00 0.00 0.00 99
20260510102347 45 28 0.0 0.0 0.00 0.00 0.00 99
20260510101844 45 28 0.0 0.0 0.00 0.00 0.00 99
20260510101342 46 28 0.0 0.0 0.00 0.00 0.00 99
20260510100838 45 28 0.0 0.0 0.00 0.00 0.00 99
20260510100336 46 28 0.0 0.0 0.00 0.00 0.00 99
20260510095832 46 28 0.0 0.0 0.00 0.00 0.00 99
20260510095327 46 28 0.0 0.0 0.00 0.00 0.00 99
20260510094821 46 28 0.0 0.0 0.00 0.00 0.00 99
20260510094316 46 28 0.0 0.0 0.00 0.00 0.00 99
20260510093813 46 28 0.0 0.0 0.00 0.00 0.00 99
20260510093309 46 28 0.0 0.0 0.00 0.00 0.00 99
20260510092805 46 28 0.0 0.0 0.00 0.00 0.00 99
20260510092301 46 28 0.0 0.0 0.00 0.00 0.00 99
20260510091757 46 28 0.0 0.0 0.00 0.00 0.00 99
20260510091255 46 28 0.0 0.0 0.00 0.00 0.00 99
20260510090751 46 28 0.0 0.0 0.00 0.00 0.00 99
20260510090248 46 28 0.0 0.0 0.00 0.00 0.00 99
20260510085744 47 28 0.0 0.0 0.00 0.00 0.00 99
20260510085238 46 31 0.0 0.0 0.00 0.00 0.00 99
20260510084734 47 27 0.0 0.0 0.00 0.00 0.00 99
20260510084231 47 28 0.0 0.0 0.00 0.00 0.00 99
20260510083727 47 27 0.0 0.0 0.00 0.00 0.00 99
20260510083225 47 28 0.0 1.0 0.00 0.00 0.00 99
20260510082720 47 28 0.0 0.0 0.00 0.00 0.00 99
20260510082217 47 27 0.0 0.0 0.00 0.00 0.00 99
20260510081716 47 28 0.0 1.0 0.00 0.00 0.00 99
20260510081212 47 27 0.0 0.0 0.00 0.00 0.00 99
20260510080707 47 26 0.0 0.0 0.00 0.00 0.00 99
20260510080204 47 26 0.0 0.0 0.00 0.00 0.00 99
20260510075701 47 26 0.0 0.0 0.00 0.00 0.00 99
20260510075158 47 26 0.0 0.0 0.00 0.00 0.00 99
20260510074655 47 26 0.0 0.0 0.00 0.00 0.00 99
20260510074151 47 26 0.0 0.0 0.00 0.00 0.00 99
20260510073648 47 26 0.0 0.0 0.00 0.00 0.00 99
20260510073144 47 26 0.0 0.0 0.00 0.00 0.00 99
20260510072640 47 26 0.0 0.0 0.00 0.00 0.00 99
20260510072136 47 26 0.0 0.0 0.00 0.00 0.00 99
20260510071632 47 26 0.0 0.0 0.00 0.00 0.00 99
20260510071130 47 26 0.0 0.0 0.00 0.00 0.00 99
20260510070628 47 26 0.0 0.0 0.00 0.00 0.00 99
20260510070125 47 26 0.0 0.0 0.00 0.00 0.00 99
20260510065620 47 26 0.0 0.0 0.00 0.00 0.00 99
20260510065116 48 26 0.0 0.0 0.00 0.00 0.00 99
20260510064613 48 26 0.0 0.0 0.00 0.00 0.00 99
20260510064110 48 26 0.0 0.0 0.00 0.00 0.00 99
20260510063607 48 26 0.0 0.0 0.00 0.00 0.00 99
20260510063103 48 26 0.0 0.0 0.00 0.00 0.00 99
20260510062554 48 26 0.0 0.0 0.00 0.00 0.00 99
20260510062049 48 26 0.0 0.0 0.00 0.00 0.00 99
20260510061546 48 26 0.0 0.0 0.00 0.00 0.00 99
20260510061043 48 26 0.0 0.0 0.00 0.00 0.00 99
20260510060539 49 26 0.0 0.0 0.00 0.00 0.00 99
20260510060035 49 26 0.0 0.0 0.00 0.00 0.00 99
20260510055531 49 26 0.0 0.0 0.00 0.00 0.00 99
20260510055030 49 26 0.0 0.0 0.00 0.00 0.00 99
20260510054525 49 26 0.0 0.0 0.00 0.00 0.00 99
20260510054020 49 26 0.0 0.0 0.00 0.00 0.00 99
20260510053516 49 26 0.0 0.0 0.00 0.00 0.00 99
20260510053013 49 26 0.0 0.0 0.00 0.00 0.00 99
20260510052509 49 26 0.0 0.0 0.00 0.00 0.00 99
20260510052005 50 26 0.0 0.0 0.00 0.00 0.00 99
20260510051500 50 26 0.0 0.0 0.00 0.00 0.00 99
20260510050957 50 26 0.0 0.0 0.00 0.00 0.00 99
20260510050454 50 25 0.0 0.0 0.00 0.00 0.00 99
20260510045951 50 25 0.0 0.0 0.00 0.00 0.00 99
20260510045449 50 25 0.0 0.0 0.00 0.00 0.00 99
20260510044945 50 25 0.0 0.0 0.00 0.00 0.00 99
20260510044442 50 25 0.0 0.0 0.00 0.00 0.00 99
20260510043939 50 25 0.0 0.0 0.00 0.00 0.00 99
20260510043434 50 25 0.0 0.0 0.00 0.00 0.00 99
20260510042933 50 25 0.0 0.0 0.00 0.00 0.00 99
20260510042429 50 25 0.0 0.0 0.00 0.00 0.00 99
20260510041924 51 25 0.0 0.0 0.00 0.00 0.00 99
20260510041422 51 25 0.0 0.0 0.00 0.00 0.00 99
20260510040919 51 25 0.0 0.0 0.00 0.00 0.00 99
20260510040416 51 25 0.0 0.0 0.00 0.00 0.00 99
20260510035911 51 25 0.0 0.0 0.00 0.00 0.00 99
20260510035408 51 25 0.0 0.0 0.00 0.00 0.00 99
20260510034903 51 26 0.0 0.0 0.00 0.00 0.00 99
20260510034402 52 25 0.0 0.0 0.00 0.00 0.00 99
20260510033857 51 25 0.0 0.0 0.00 0.00 0.00 99
20260510033354 52 25 0.0 0.0 0.00 0.00 0.00 99
20260510032850 52 25 0.0 0.0 0.00 0.00 0.00 99
20260510032347 52 25 0.0 0.0 0.00 0.00 0.00 99
20260510031843 51 25 0.0 0.0 0.00 0.00 0.00 99
20260510031338 52 25 0.0 0.0 0.00 0.00 0.00 99
20260510030838 52 25 0.0 0.0 0.00 0.00 0.00 99
20260510030335 52 24 0.0 0.0 0.00 0.00 0.00 99
20260510025832 52 24 0.0 0.0 0.00 0.00 0.00 99
20260510025330 53 24 0.0 0.0 0.00 0.00 0.00 99
20260510024826 53 25 0.0 0.0 0.00 0.00 0.00 99
20260510024323 53 25 0.0 0.0 0.00 0.00 0.00 98
20260510023820 54 25 0.0 0.0 0.00 0.00 0.00 98
20260510023316 53 25 0.0 0.0 0.00 0.00 0.00 98
20260510022813 54 23 0.0 0.0 0.00 0.00 0.00 98
20260510022312 54 24 0.0 0.0 0.00 0.00 0.00 97
20260510021811 54 23 0.0 0.0 0.00 0.00 0.00 97
20260510021310 54 22 0.0 0.0 0.00 0.00 0.00 97
20260510020805 55 22 0.0 0.0 0.00 0.00 0.00 97
20260510020300 55 22 0.0 0.0 0.00 0.00 0.00 96
20260510015756 55 22 0.0 0.0 0.00 0.00 0.00 96
20260510015252 55 22 0.0 0.0 0.00 0.00 0.00 95
20260510014747 56 23 0.0 0.0 0.00 0.00 0.00 95
20260510014245 56 20 0.0 0.0 0.00 0.00 0.00 95
20260510013741 56 13 0.0 0.0 0.00 0.00 0.00 95
20260510013237 56 13 0.0 0.0 0.00 0.00 0.00 94
20260510012736 56 13 0.0 0.0 0.00 0.00 0.00 93
20260510012232 56 12 0.0 0.0 0.00 0.00 0.00 94
20260510011732 56 12 0.0 0.0 0.00 0.00 0.00 93
20260510011228 57 12 0.0 0.0 0.00 0.00 0.00 92
20260510010725 57 12 0.0 0.0 0.00 0.00 0.00 91
20260510010221 58 14 0.0 0.0 0.00 0.00 0.00 91
20260510005718 57 349 0.0 0.0 0.00 0.00 0.00 91
20260510005214 58 349 0.0 0.0 0.00 0.00 0.00 90
20260510004713 58 349 0.0 0.0 0.00 0.00 0.00 90
20260510004211 59 349 0.0 0.0 0.00 0.00 0.00 88
20260510003708 59 349 0.0 0.0 0.00 0.00 0.00 87
20260510003203 60 349 0.0 0.0 0.00 0.00 0.00 85
20260510002657 61 349 0.0 0.0 0.00 0.00 0.00 84
20260510002155 61 349 0.0 0.0 0.00 0.00 0.00 83
20260510001652 62 348 0.0 0.0 0.00 0.00 0.00 82
20260510001150 62 349 0.0 0.0 0.00 0.00 0.00 80
20260510000651 63 338 0.0 0.0 0.00 0.00 0.00 79
20260510000148 63 340 0.0 1.0 0.00 0.00 0.00 78
20260509235645 63 331 0.0 0.0 0.00 0.00 0.00 78
20260509235141 64 333 0.0 0.0 0.00 0.00 0.00 77
20260509234637 64 349 0.0 0.0 0.00 0.00 0.00 76
20260509234135 64 4 0.0 1.0 0.00 0.00 0.00 75
20260509233632 65 348 0.0 0.0 0.00 0.00 0.00 76
20260509233124 66 343 0.0 1.0 0.00 0.00 0.00 74
20260509232620 66 358 0.0 0.0 0.00 0.00 0.00 72
20260509232117 66 268 1.0 1.0 0.00 0.00 0.00 74
20260509231614 67 344 1.0 3.0 0.00 0.00 0.00 72
20260509231112 67 326 0.0 1.0 0.00 0.00 0.00 72
20260509230608 67 7 0.0 1.0 0.00 0.00 0.00 72
20260509230105 68 19 1.0 1.0 0.00 0.00 0.00 71
20260509225601 68 317 0.0 0.0 0.00 0.00 0.00 70
20260509225056 68 3 0.0 0.0 0.00 0.00 0.00 71
20260509224552 68 359 3.0 3.0 0.00 0.00 0.00 70
20260509224049 69 313 0.0 1.0 0.00 0.00 0.00 66
20260509223546 68 351 3.0 7.0 0.00 0.00 0.00 65
20260509223044 69 2 0.0 2.0 0.00 0.00 0.00 72
20260509222539 70 307 1.0 1.0 0.00 0.00 0.00 64
20260509222036 70 326 0.0 2.0 0.00 0.00 0.00 69
20260509221532 70 355 0.0 0.0 0.00 0.00 0.00 69
20260509221028 69 355 0.0 0.0 0.00 0.00 0.00 67
20260509220524 69 338 0.0 0.0 0.00 0.00 0.00 70
20260509220020 69 355 0.0 0.0 0.00 0.00 0.00 65
20260509215515 69 306 1.0 2.0 0.00 0.00 0.00 68
20260509215013 71 305 2.0 2.0 0.00 0.00 0.00 66
20260509214510 70 9 1.0 2.0 0.00 0.00 0.00 65
20260509214007 69 358 0.0 1.0 0.00 0.00 0.00 68
20260509213503 69 354 1.0 2.0 0.00 0.00 0.00 66
20260509213000 70 30 0.0 2.0 0.00 0.00 0.00 67
20260509212457 70 358 0.0 1.0 0.00 0.00 0.00 64
20260509211954 70 1 1.0 2.0 0.00 0.00 0.00 65
20260509211449 71 270 2.0 7.0 0.00 0.00 0.00 61
20260509210946 72 348 0.0 3.0 0.00 0.00 0.00 64
20260509210443 71 25 1.0 2.0 0.00 0.00 0.00 61
20260509205938 70 85 3.0 5.0 0.00 0.00 0.00 63
20260509205433 69 47 0.0 3.0 0.00 0.00 0.00 67
20260509204929 69 31 0.0 1.0 0.00 0.00 0.00 66
20260509204426 69 11 0.0 1.0 0.00 0.00 0.00 67
20260509203922 69 23 1.0 2.0 0.00 0.00 0.00 64
20260509203412 68 352 1.0 3.0 0.00 0.00 0.00 67
20260509202910 69 351 0.0 1.0 0.00 0.00 0.00 67
20260509202406 69 349 2.0 2.0 0.00 0.00 0.00 65
20260509201901 70 347 1.0 2.0 0.00 0.00 0.00 65
20260509201356 70 167 1.0 2.0 0.00 0.00 0.00 67
20260509200853 69 347 0.0 2.0 0.00 0.00 0.00 65
20260509200348 69 348 0.0 1.0 0.00 0.00 0.00 62
20260509195845 69 2 0.0 2.0 0.00 0.00 0.00 62
20260509195340 70 351 1.0 2.0 0.00 0.00 0.00 62
20260509194840 71 81 2.0 5.0 0.00 0.00 0.00 59
20260509194336 71 352 3.0 5.0 0.00 0.00 0.00 61
20260509193832 70 28 1.0 3.0 0.00 0.00 0.00 58
20260509193327 69 80 2.0 7.0 0.00 0.00 0.00 62
20260509192823 69 332 1.0 5.0 0.00 0.00 0.00 63
20260509192319 70 347 1.0 2.0 0.00 0.00 0.00 61
20260509191815 71 344 2.0 3.0 0.00 0.00 0.00 62
20260509191311 71 339 2.0 2.0 0.00 0.00 0.00 62
20260509190806 72 336 1.0 5.0 0.00 0.00 0.00 59
20260509190304 71 338 2.0 2.0 0.00 0.00 0.00 59
20260509185801 71 357 4.0 5.0 0.00 0.00 0.00 61
20260509185257 70 358 4.0 5.0 0.00 0.00 0.00 61
20260509184755 70 323 1.0 5.0 0.00 0.00 0.00 60
20260509184252 70 350 3.0 6.0 0.00 0.00 0.00 62
20260509183749 69 335 5.0 6.0 0.00 0.00 0.00 62
20260509183244 69 33 2.0 7.0 0.00 0.00 0.00 61
20260509182739 69 42 2.0 3.0 0.00 0.00 0.00 65
20260509182232 70 318 0.0 3.0 0.00 0.00 0.00 60
20260509181729 70 349 1.0 6.0 0.00 0.00 0.00 65
20260509181226 70 14 1.0 1.0 0.00 0.00 0.00 65
20260509180723 69 352 1.0 1.0 0.00 0.00 0.00 70
20260509180220 68 30 1.0 5.0 0.00 0.00 0.00 64
20260509175716 68 353 1.0 2.0 0.00 0.00 0.00 66
20260509175212 68 30 2.0 3.0 0.00 0.00 0.00 66
20260509174708 68 15 1.0 2.0 0.00 0.00 0.00 66
20260509174204 68 52 0.0 2.0 0.00 0.00 0.00 64
20260509173700 68 343 0.0 3.0 0.00 0.00 0.00 66
20260509173156 68 34 0.0 5.0 0.00 0.00 0.00 64
20260509172652 69 81 3.0 3.0 0.00 0.00 0.00 62
20260509172149 69 21 1.0 2.0 0.00 0.00 0.00 63
20260509171644 68 26 0.0 3.0 0.00 0.00 0.00 63
20260509171140 68 58 0.0 3.0 0.00 0.00 0.00 63
20260509170638 68 350 2.0 3.0 0.00 0.00 0.00 65
20260509170133 67 14 1.0 2.0 0.00 0.00 0.00 64
20260509165632 67 357 1.0 3.0 0.00 0.00 0.00 65
20260509165128 67 351 1.0 2.0 0.00 0.00 0.00 64
20260509164624 67 329 0.0 1.0 0.00 0.00 0.00 63
20260509164120 67 354 0.0 1.0 0.00 0.00 0.00 65
20260509163617 67 223 1.0 3.0 0.00 0.00 0.00 61
20260509163113 67 0 2.0 3.0 0.00 0.00 0.00 64
20260509162610 67 35 3.0 5.0 0.00 0.00 0.00 63
20260509162106 66 357 0.0 1.0 0.00 0.00 0.00 64
20260509161602 66 353 2.0 2.0 0.00 0.00 0.00 65
20260509161057 66 352 2.0 2.0 0.00 0.00 0.00 65
20260509160553 66 348 0.0 1.0 0.00 0.00 0.00 70
20260509160048 66 350 0.0 1.0 0.00 0.00 0.00 66
20260509155545 65 15 0.0 0.0 0.00 0.00 0.00 68
20260509155041 66 355 1.0 2.0 0.00 0.00 0.00 74
20260509154537 64 353 0.0 1.0 0.00 0.00 0.00 70
20260509154035 64 356 2.0 2.0 0.00 0.00 0.00 70
20260509153532 64 349 0.0 2.0 0.00 0.00 0.00 75